Location: Colebrook
(42.0017°N, 73.0973°W)
Time: 12:55:51
(UTC-04:00)

Amateur Radio Satellites - All Passes

Search period start: 30 July 2016 12:25
Search period end: 31 July 2016 12:25
Location: Colebrook, 42.0017°N, 73.0973°W

Satellite Date Start Highest point End Downlink Frequencies (MHz)
Time Altitude Azimuth
AISAT 30 Jul 12:29:04 12:33:28 55° 101° (E) 12:37:50 437.250
NANOSAT C BR1 30 Jul 12:30:41 12:34:10 24° 265° (W) 12:37:41 145.865
BUGSAT 1 30 Jul 12:32:09 12:36:10 55° 260° (W) 12:40:16 437.445
RS-15 30 Jul 12:32:21 12:42:19 27° 18° (NNE) 12:52:21 29.354- 29.394
DUCHIFAT 1 30 Jul 12:33:11 12:36:40 24° 265° (W) 12:40:10 145.980
50 SAT 30 Jul 12:46:05 12:49:42 85° 285° (WNW) 12:53:17 437.505
SPROUT 30 Jul 12:49:39 12:53:47 41° 99° (E) 12:57:50 437.525
QB50P1 30 Jul 12:57:04 12:59:00 13° 270° (W) 13:00:56 145.935-145.965
AO-7 30 Jul 13:00:35 13:03:04 12° 41° (NE) 13:05:33 29.400- 29.500
POPSAT HIP 1 30 Jul 13:04:47 13:05:53 11° 271° (W) 13:07:00 437.405
Oscar 19 30 Jul 13:10:34 13:15:36 61° 72° (ENE) 13:20:39 437.125/150
CUBEBUG 1 30 Jul 13:12:02 13:16:15 45° 288° (WNW) 13:20:27 437.445
AIST 1 30 Jul 13:16:50 13:21:05 86° 98° (E) 13:25:22
ITAMSAT 1 30 Jul 13:17:35 13:19:16 12° 57° (ENE) 13:20:58 435.822/435.867
ESTCUBE 1 30 Jul 13:19:20 13:23:07 27° 292° (WNW) 13:26:53 437.505/2401.250
AO-85 30 Jul 13:20:15 13:25:38 80° 120° (ESE) 13:30:46 145.980
VELOX 1 30 Jul 13:20:17 13:24:32 44° 288° (WNW) 13:28:46 145.980
Gurwin Techsat 1B 30 Jul 13:20:29 13:25:15 35° 67° (ENE) 13:30:03 435.225
JAS-2 30 Jul 13:31:13 13:36:11 28° 264° (W) 13:40:49 435.910
TISAT 1 30 Jul 13:32:13 13:35:54 28° 96° (E) 13:39:34 437.305
Cosmos 2504 30 Jul 13:33:43 13:37:50 14° 303° (WNW) 13:41:56 435.465 / 435.565
DX 1 30 Jul 13:52:49 13:56:33 28° 292° (WNW) 14:00:17 434.975-435.025
CUSAT 1 30 Jul 13:53:45 13:56:32 27° 78° (ENE) 13:59:56 437.405
UKube-1 30 Jul 13:59:32 14:03:18 29° 292° (WNW) 14:07:02 .
BEESAT 30 Jul 14:01:41 14:03:09 11° 89° (E) 14:04:36 436.000
AISAT 30 Jul 14:06:51 14:09:29 16° 297° (WNW) 14:12:08 437.250
GONETS M04 30 Jul 14:17:20 14:24:41 32° 83° (E) 14:32:04
Cosmos 2499 30 Jul 14:24:24 14:31:21 27° 82° (E) 14:38:08 435.465 / 435.565
ITUPSAT 1 30 Jul 14:25:30 14:29:02 20° 93° (E) 14:32:31 437.325
SPROUT 30 Jul 14:26:24 14:29:24 19° 295° (WNW) 14:32:23 437.525
SO-50 30 Jul 14:37:46 14:40:22 15° 36° (NE) 14:42:56 436.795
AO-7 30 Jul 14:45:55 14:53:48 48° 62° (ENE) 15:01:43 29.400- 29.500
RS-15 30 Jul 14:45:56 14:58:10 61° 48° (NE) 15:10:14 29.354- 29.394
DANDE 30 Jul 14:51:06 14:53:34 32° 78° (ENE) 14:56:22 436.750
Oscar 19 30 Jul 14:52:11 14:55:19 16° 269° (W) 14:58:28 437.125/150
ITAMSAT 1 30 Jul 14:52:40 14:57:53 82° 75° (ENE) 15:03:08 435.822/435.867
Gurwin Techsat 1B 30 Jul 15:00:33 15:05:12 30° 264° (W) 15:09:52 435.225
AO-85 30 Jul 15:02:52 15:06:39 20° 319° (NW) 15:10:19 145.980
TISAT 1 30 Jul 15:07:56 15:11:27 26° 292° (WNW) 15:14:58 437.305
SWISSCUBE 30 Jul 15:15:44 15:20:31 74° 103° (ESE) 15:25:14 437.505
PHONESAT 2.4 30 Jul 15:20:01 15:22:12 18° 153° (SSE) 15:24:24 2401.200-2431.200
CUSAT 1 30 Jul 15:36:29 15:38:26 14° 265° (W) 15:40:37 437.405
BEESAT 30 Jul 15:36:42 15:41:28 76° 286° (WNW) 15:46:13 436.000
MOZHAYETS 4 30 Jul 15:45:43 15:48:50 18° 92° (E) 15:51:57
ITUPSAT 1 30 Jul 16:02:32 16:07:02 43° 290° (WNW) 16:11:32 437.325
GONETS M04 30 Jul 16:12:32 16:21:01 56° 283° (WNW) 16:29:35
Cosmos 2499 30 Jul 16:14:55 16:23:46 69° 280° (W) 16:32:21 435.465 / 435.565
SO-50 30 Jul 16:16:57 16:21:37 83° 58° (ENE) 16:26:07 436.795
KKS-1 30 Jul 16:20:14 16:24:25 36° 98° (E) 16:28:33 437.445
NOAA 18 30 Jul 16:31:08 16:31:58 10° 54° (NE) 16:32:49 137.9125
ITAMSAT 1 30 Jul 16:35:56 16:37:58 12° 271° (W) 16:40:00 435.822/435.867
AO-7 30 Jul 16:38:56 16:46:38 40° 261° (W) 16:54:26 29.400- 29.500
Cubesat XI-IV 30 Jul 16:39:54 16:41:41 12° 56° (ENE) 16:43:27 437.490
HORYU 2 30 Jul 16:42:11 16:46:34 56° 73° (ENE) 16:51:00 437.375
STARS 30 Jul 16:48:41 16:52:49 36° 98° (E) 16:56:54 437.465
PHONESAT 2.4 30 Jul 16:55:19 16:58:20 52° 169° (S) 17:01:21 2401.200-2431.200
SWISSCUBE 30 Jul 16:55:25 16:57:40 13° 300° (WNW) 16:59:55 437.505
RS-15 30 Jul 16:58:59 17:10:22 46° 252° (WSW) 17:21:34 29.354- 29.394
CUTE-I 30 Jul 17:00:17 17:03:49 18° 61° (ENE) 17:07:21 437.470
BRITE-PL 30 Jul 17:05:47 17:09:02 23° 67° (ENE) 17:12:21 437.365/2234.400
NOAA 15 30 Jul 17:07:08 17:11:24 26° 65° (ENE) 17:15:42 137.62
CUBESAT XI-V 30 Jul 17:15:00 17:18:21 20° 93° (E) 17:21:42 437.345
MOZHAYETS 4 30 Jul 17:21:52 17:26:13 44° 288° (WNW) 17:30:32
PCSat 30 Jul 17:41:11 17:44:55 19° 106° (ESE) 17:48:41 145.827
GOMX 1 30 Jul 17:48:05 17:51:44 29° 68° (ENE) 17:55:32 467.674
KKS-1 30 Jul 17:57:17 18:00:45 22° 294° (WNW) 18:04:14 437.445
LilacSat-2 30 Jul 17:57:54 18:01:36 45° 73° (ENE) 18:05:21 437.200
SO-50 30 Jul 18:00:20 18:01:20 11° 254° (WSW) 18:02:19 436.795
NOAA 18 30 Jul 18:06:07 18:11:35 68° 72° (ENE) 18:17:08 137.9125
HO-68 30 Jul 18:07:15 18:11:26 17° 52° (NE) 18:15:39 435.675
BEESAT 3 30 Jul 18:07:29 18:11:23 76° 303° (WNW) 18:15:20 437.485
Cosmos 2499 30 Jul 18:14:02 18:18:32 15° 301° (WNW) 18:22:58 435.465 / 435.565
Cubesat XI-IV 30 Jul 18:15:29 18:20:51 79° 74° (ENE) 18:26:16 437.490
GONETS M04 30 Jul 18:18:28 18:20:11 11° 307° (NW) 18:21:54
HORYU 2 30 Jul 18:21:07 18:23:29 14° 269° (W) 18:25:52 437.375
BEESAT 2 30 Jul 18:21:16 18:25:13 80° 121° (ESE) 18:29:12 435.950
YUBILEINY 30 Jul 18:24:49 18:26:21 10° 52° (NE) 18:27:53 435.215
STARS 30 Jul 18:25:31 18:28:56 22° 294° (WNW) 18:32:21 437.465
PHONESAT 2.4 30 Jul 18:31:39 18:34:43 62° 185° (S) 18:37:45 2401.200-2431.200
CUTE-I 30 Jul 18:37:59 18:43:19 66° 258° (WSW) 18:48:41 437.470
CINEMA 3 30 Jul 18:43:47 18:46:46 17° 62° (ENE) 18:49:50 145.822/145.860
BRITE-PL 30 Jul 18:43:49 18:47:25 29° 264° (W) 18:51:06 437.365/2234.400
NOAA 15 30 Jul 18:46:02 18:50:58 41° 261° (W) 18:55:55 137.62
CUBESAT XI-V 30 Jul 18:51:33 18:55:54 42° 289° (WNW) 19:00:15 437.345
CANX-2 30 Jul 18:56:10 18:59:05 18° 66° (ENE) 19:02:00 2200.000
DOVE 4 30 Jul 18:58:35 19:02:55 75° 75° (ENE) 19:07:33 437.250
CUTE 1.7 + AOD 2 30 Jul 19:08:27 19:11:41 21° 67° (ENE) 19:14:54 437.475
AIST 2 30 Jul 19:18:33 19:20:51 15° 110° (ESE) 19:23:09 435.215
PCSat 30 Jul 19:22:27 19:27:48 61° 303° (WNW) 19:33:12 145.827
CUBEBUG 2 30 Jul 19:25:30 19:27:58 14° 62° (ENE) 19:30:27 437.445
GOMX 1 30 Jul 19:26:23 19:29:50 24° 266° (W) 19:33:26 467.674
LilacSat-2 30 Jul 19:34:18 19:36:09 13° 269° (W) 19:38:00 437.200
ISS 30 Jul 19:35:56 19:38:40 25° 135° (SE) 19:41:26 145.825
SEEDS 30 Jul 19:39:48 19:43:34 32° 70° (ENE) 19:47:19 437.485
COMPASS 1 30 Jul 19:44:36 19:48:03 25° 69° (ENE) 19:51:29 437.405
BEESAT 3 30 Jul 19:48:44 19:49:45 11° 323° (NW) 19:50:47 437.485
NOAA 18 30 Jul 19:49:18 19:52:44 17° 269° (W) 19:56:12 137.9125
Cosmos 2491 30 Jul 19:49:29 19:54:31 17° 76° (ENE) 19:59:31 435.465 / 435.565
HO-68 30 Jul 19:50:52 19:58:03 79° 72° (ENE) 20:05:17 435.675
Cubesat XI-IV 30 Jul 19:59:03 20:01:31 13° 271° (W) 20:04:00 437.490
O/OREOS (USA 219) 30 Jul 19:59:46 20:04:09 60° 109° (ESE) 20:08:34 437.305
BEESAT 2 30 Jul 20:01:33 20:03:34 13° 320° (NW) 20:05:36 435.950
PHONESAT 2.4 30 Jul 20:08:18 20:10:57 26° 202° (SSW) 20:13:35 2401.200-2431.200
AAUSAT CUBESAT 2 30 Jul 20:08:33 20:12:22 36° 71° (ENE) 20:16:10 437.432
AO-85 30 Jul 20:13:39 20:15:28 12° 34° (NNE) 20:17:13 145.980
STRAND 1 30 Jul 20:16:29 20:21:37 81° 103° (ESE) 20:26:43 437.568
YUBILEINY 30 Jul 20:16:54 20:25:34 55° 76° (ENE) 20:34:07 435.215
FUNcube-1 30 Jul 20:18:50 20:22:11 20° 65° (ENE) 20:25:32 145.935
CINEMA 3 30 Jul 20:18:54 20:23:23 55° 260° (W) 20:28:08 145.822/145.860
ZACube-1 30 Jul 20:21:42 20:25:17 23° 66° (ENE) 20:28:54 437.345
UWE-3 30 Jul 20:29:12 20:33:31 41° 71° (ENE) 20:37:54 435.000/436.395/437.385
CANX-2 30 Jul 20:30:35 20:34:38 41° 262° (W) 20:38:41 2200.000
CUTE 1.7 + AOD 2 30 Jul 20:43:24 20:47:18 34° 263° (W) 20:51:12 437.475
AIST 2 30 Jul 20:54:52 20:58:53 53° 307° (NW) 21:02:57 435.215
Oscar 11 30 Jul 20:54:52 20:59:03 49° 73° (ENE) 21:03:16 145.826/435.025
CUBEBUG 2 30 Jul 20:59:21 21:03:58 68° 259° (W) 21:08:43 437.445
HUMSAT D 30 Jul 21:03:13 21:05:24 14° 63° (ENE) 21:07:36 437.325/437.525
PCSat 30 Jul 21:10:01 21:12:22 13° 324° (NW) 21:14:43 145.827
M-CUBED/EXP-1 PRIME 30 Jul 21:10:08 21:13:34 30° 63° (ENE) 21:17:16 437.505
ISS 30 Jul 21:11:53 21:14:59 40° 333° (NNW) 21:18:06 145.825
SEEDS 30 Jul 21:16:02 21:19:18 21° 266° (W) 21:22:34 437.485
COMPASS 1 30 Jul 21:19:58 21:23:31 27° 264° (W) 21:27:04 437.405
Cosmos 2504 30 Jul 21:26:56 21:34:45 50° 75° (ENE) 21:41:59 435.465 / 435.565
AUBIESAT-1 30 Jul 21:32:22 21:36:07 43° 66° (ENE) 21:40:09 437.475
DELFI C3 30 Jul 21:32:53 21:36:45 54° 74° (ENE) 21:40:38 145.870
PRISM 30 Jul 21:36:50 21:40:57 78° 103° (ESE) 21:45:04 437.425
Cosmos 2491 30 Jul 21:41:15 21:49:58 86° 97° (E) 21:58:44 435.465 / 435.565
O/OREOS (USA 219) 30 Jul 21:41:16 21:43:58 16° 307° (NW) 21:46:42 437.305
HO-68 30 Jul 21:41:38 21:46:29 19° 269° (W) 21:51:23 435.675
AAUSAT CUBESAT 2 30 Jul 21:45:04 21:47:57 18° 267° (W) 21:50:52 437.432
AO-85 30 Jul 21:52:26 21:56:50 72° 54° (NE) 22:00:53 145.980
FUNcube-1 30 Jul 21:53:47 21:58:06 42° 262° (W) 22:02:28 145.935
ZACube-1 30 Jul 21:57:08 22:01:21 37° 263° (W) 22:05:37 437.345
STRAND 1 30 Jul 21:57:37 22:00:06 14° 301° (WNW) 22:02:36 437.568
TIGRISAT 30 Jul 22:03:54 22:06:01 13° 89° (E) 22:08:07 435.000
UWE-3 30 Jul 22:06:39 22:10:07 21° 268° (W) 22:13:38 435.000/436.395/437.385
YUBILEINY 30 Jul 22:14:21 22:21:55 34° 276° (W) 22:29:28 435.215
UNISAT 6 30 Jul 22:20:31 22:24:01 21° 93° (E) 22:27:26 437.425
Oscar 11 30 Jul 22:32:57 22:35:27 15° 269° (W) 22:37:59 145.826/435.025
CUBEBUG 1 30 Jul 22:33:51 22:36:22 15° 63° (ENE) 22:38:55 437.445
HUMSAT D 30 Jul 22:36:18 22:40:32 59° 260° (W) 22:44:48 437.325/437.525
ESTCUBE 1 30 Jul 22:42:25 22:46:15 28° 68° (ENE) 22:50:06 437.505/2401.250
VELOX 1 30 Jul 22:42:58 22:45:49 17° 64° (ENE) 22:48:41 145.980
M-CUBED/EXP-1 PRIME 30 Jul 22:45:00 22:48:07 23° 262° (W) 22:51:27 437.505
ISS 30 Jul 22:49:54 22:52:04 16° 352° (N) 22:54:13 145.825
ANTELSAT 30 Jul 22:58:06 23:02:37 52° 99° (E) 23:06:59 437.575/2403.000
AUBIESAT-1 30 Jul 23:08:21 23:10:51 16° 264° (W) 23:13:28 437.475
DELFI C3 30 Jul 23:10:39 23:11:56 11° 270° (W) 23:13:13 145.870
DX 1 30 Jul 23:12:43 23:16:15 25° 67° (ENE) 23:19:49 434.975-435.025
POPSAT HIP 1 30 Jul 23:12:47 23:13:29 10° 89° (E) 23:14:11 437.405
UKube-1 30 Jul 23:18:45 23:22:09 23° 66° (ENE) 23:25:35 .
Cosmos 2504 30 Jul 23:20:54 23:27:44 32° 276° (W) 23:34:10 435.465 / 435.565
50 SAT 30 Jul 23:23:45 23:27:13 42° 73° (ENE) 23:30:40 437.505
AIST 1 30 Jul 23:23:53 23:27:18 22° 73° (ENE) 23:30:43
AISAT 30 Jul 23:26:37 23:30:50 50° 72° (ENE) 23:35:07 437.250
QB50P2 30 Jul 23:32:38 23:35:47 20° 93° (E) 23:38:54 145.880/145.840
POLYITAN 1 30 Jul 23:35:15 23:38:26 20° 93° (E) 23:41:36 437.675
AO-85 30 Jul 23:35:46 23:36:30 10° 254° (WSW) 23:37:12 145.980
TIGRISAT 30 Jul 23:38:35 23:43:09 62° 286° (WNW) 23:47:35 435.000
Cosmos 2491 30 Jul 23:41:52 23:48:00 21° 298° (WNW) 23:54:11 435.465 / 435.565
SPROUT 30 Jul 23:43:31 23:47:21 33° 70° (ENE) 23:51:14 437.525
UNISAT 6 30 Jul 23:56:35 00:00:51 38° 290° (WNW) 00:05:01 437.425
CUBEBUG 1 31 Jul 00:08:01 00:12:13 52° 260° (W) 00:16:28 437.445
NANOSAT C BR1 31 Jul 00:13:45 00:17:55 49° 100° (E) 00:22:02 145.865
BUGSAT 1 31 Jul 00:14:05 00:17:19 21° 94° (E) 00:20:32 437.445
DUCHIFAT 1 31 Jul 00:15:59 00:20:08 49° 100° (E) 00:24:15 145.980
VELOX 1 31 Jul 00:17:41 00:21:54 47° 261° (W) 00:26:11 145.980
ESTCUBE 1 31 Jul 00:19:10 00:23:00 28° 264° (W) 00:26:51 437.505/2401.250
TISAT 1 31 Jul 00:24:28 00:27:46 23° 67° (ENE) 00:31:06 437.305
ISS 31 Jul 00:27:04 00:29:24 18° 12° (NNE) 00:31:46 145.825
GONETS M04 31 Jul 00:27:09 00:32:16 16° 59° (ENE) 00:37:22
ANTELSAT 31 Jul 00:35:56 00:38:53 17° 297° (WNW) 00:41:47 437.575/2403.000
JAS-2 31 Jul 00:37:48 00:42:38 32° 97° (E) 00:47:52 435.910
QB50P1 31 Jul 00:38:33 00:42:52 81° 284° (WNW) 00:47:08 145.935-145.965
POPSAT HIP 1 31 Jul 00:45:27 00:49:44 69° 285° (WNW) 00:53:58 437.405
DX 1 31 Jul 00:48:32 00:52:19 29° 263° (W) 00:56:09 434.975-435.025
SWISSCUBE 31 Jul 00:48:49 00:50:03 11° 58° (ENE) 00:51:18 437.505
BEESAT 3 31 Jul 00:49:34 00:49:49 10° 36° (NE) 00:50:05 437.485
UKube-1 31 Jul 00:54:11 00:58:02 32° 263° (W) 01:01:56 .
50 SAT 31 Jul 00:59:29 01:01:03 12° 268° (W) 01:02:36 437.505
AIST 1 31 Jul 01:01:04 01:04:55 31° 270° (W) 01:08:48
AISAT 31 Jul 01:05:04 01:07:37 15° 269° (W) 01:10:10 437.250
QB50P2 31 Jul 01:07:45 01:11:42 36° 289° (WNW) 01:15:37 145.880/145.840
BEESAT 31 Jul 01:07:58 01:10:45 16° 61° (ENE) 01:13:31 436.000
POLYITAN 1 31 Jul 01:10:24 01:14:20 36° 290° (WNW) 01:18:14 437.675
SPROUT 31 Jul 01:20:04 01:23:22 22° 266° (W) 01:26:41 437.525
Oscar 19 31 Jul 01:22:27 01:26:18 21° 93° (E) 01:30:08 437.125/150
ITUPSAT 1 31 Jul 01:32:31 01:36:27 26° 66° (ENE) 01:40:23 437.325
Gurwin Techsat 1B 31 Jul 01:37:55 01:40:12 13° 89° (E) 01:42:30 435.225
BUGSAT 1 31 Jul 01:48:53 01:52:46 34° 290° (WNW) 01:56:37 437.445
NANOSAT C BR1 31 Jul 01:50:40 01:53:14 16° 296° (WNW) 01:55:47 145.865
DUCHIFAT 1 31 Jul 01:52:50 01:55:26 16° 296° (WNW) 01:58:00 145.980
TISAT 1 31 Jul 01:59:30 02:03:15 31° 263° (W) 02:07:03 437.305
ISS 31 Jul 02:03:08 02:06:22 59° 32° (NNE) 02:09:34 145.825
Cosmos 2499 31 Jul 02:06:51 02:14:11 44° 74° (ENE) 02:21:02 435.465 / 435.565
GONETS M04 31 Jul 02:21:52 02:30:44 77° 81° (E) 02:39:35
SWISSCUBE 31 Jul 02:22:18 02:27:06 88° 74° (ENE) 02:31:55 437.505
JAS-2 31 Jul 02:22:56 02:27:45 35° 292° (WNW) 02:32:58 435.910
BEESAT 3 31 Jul 02:24:17 02:28:15 68° 55° (NE) 02:32:11 437.485
PCSat 31 Jul 02:27:19 02:31:23 21° 44° (NE) 02:35:25 145.827
BEESAT 2 31 Jul 02:38:55 02:42:51 52° 54° (NE) 02:46:45 435.950
BEESAT 31 Jul 02:43:15 02:48:00 64° 258° (WSW) 02:52:46 436.000
MOZHAYETS 4 31 Jul 02:48:06 02:51:22 19° 65° (ENE) 02:54:38
AO-7 31 Jul 02:50:14 02:53:15 12° 86° (E) 02:56:15 29.400- 29.500
CUSAT 1 31 Jul 02:58:24 03:01:35 28° 97° (E) 03:04:16 437.405
Oscar 19 31 Jul 03:00:52 03:05:52 49° 289° (WNW) 03:10:50 437.125/150
ITAMSAT 1 31 Jul 03:05:38 03:10:03 27° 95° (E) 03:14:25 435.822/435.867
ITUPSAT 1 31 Jul 03:09:43 03:14:07 35° 263° (W) 03:18:32 437.325
Gurwin Techsat 1B 31 Jul 03:15:25 03:20:46 80° 285° (WNW) 03:26:05 435.225
KKS-1 31 Jul 03:18:35 03:22:37 35° 69° (ENE) 03:26:41 437.445
AIST 2 31 Jul 03:38:24 03:40:52 15° 40° (NE) 03:43:20 435.215
ISS 31 Jul 03:40:20 03:42:29 16° 228° (SW) 03:44:38 145.825
STARS 31 Jul 03:45:36 03:49:34 34° 69° (ENE) 03:53:34 437.465
DANDE 31 Jul 03:59:28 04:04:32 60° 99° (E) 04:08:20 436.750
Cosmos 2499 31 Jul 04:00:20 04:07:04 35° 275° (W) 04:13:25 435.465 / 435.565
BEESAT 3 31 Jul 04:04:30 04:05:21 11° 252° (WSW) 04:06:13 437.485
PCSat 31 Jul 04:09:55 04:15:19 71° 243° (WSW) 04:20:42 145.827
BEESAT 2 31 Jul 04:18:04 04:20:15 14° 250° (WSW) 04:22:26 435.950
CUBESAT XI-V 31 Jul 04:18:53 04:22:17 21° 66° (ENE) 04:25:42 437.345
GONETS M04 31 Jul 04:20:12 04:26:33 23° 281° (W) 04:32:57
MOZHAYETS 4 31 Jul 04:23:45 04:28:12 45° 261° (W) 04:32:39
O/OREOS (USA 219) 31 Jul 04:31:18 04:33:53 15° 52° (NE) 04:36:30 437.305
HORYU 2 31 Jul 04:36:19 04:36:25 10° 89° (E) 04:36:31 437.375
AO-7 31 Jul 04:39:06 04:47:28 69° 105° (ESE) 04:55:43 29.400- 29.500
CUSAT 1 31 Jul 04:42:24 04:43:30 11° 286° (WNW) 04:44:34 437.405
ITAMSAT 1 31 Jul 04:44:49 04:49:34 37° 292° (WNW) 04:54:17 435.822/435.867
KKS-1 31 Jul 04:55:48 04:59:15 22° 266° (W) 05:02:44 437.445
Gurwin Techsat 1B 31 Jul 04:58:09 04:59:50 11° 303° (WNW) 05:01:31 435.225
RS-15 31 Jul 05:11:17 05:20:53 33° 104° (ESE) 05:30:52 29.354- 29.394
AIST 2 31 Jul 05:15:41 05:19:52 75° 239° (WSW) 05:24:00 435.215
STARS 31 Jul 05:22:32 05:25:59 22° 266° (W) 05:29:28 437.465
DANDE 31 Jul 05:46:14 05:47:14 11° 287° (WNW) 05:48:11 436.750
GOMX 1 31 Jul 05:50:58 05:52:03 11° 88° (E) 05:53:10 467.674
CUBESAT XI-V 31 Jul 05:55:03 05:59:24 41° 262° (W) 06:03:45 437.345
STRAND 1 31 Jul 05:56:08 05:59:12 16° 61° (ENE) 06:02:17 437.568
HORYU 2 31 Jul 06:09:01 06:13:30 76° 286° (WNW) 06:17:56 437.375
O/OREOS (USA 219) 31 Jul 06:09:15 06:13:46 66° 250° (WSW) 06:18:17 437.305
NOAA 18 31 Jul 06:28:19 06:32:59 27° 95° (E) 06:37:36 137.9125
SO-50 31 Jul 06:31:47 06:35:47 26° 112° (ESE) 06:39:45 436.795
AO-7 31 Jul 06:32:44 06:39:35 30° 305° (NW) 06:46:23 29.400- 29.500
Cubesat XI-IV 31 Jul 06:32:47 06:37:28 30° 96° (E) 06:42:06 437.490
BRITE-PL 31 Jul 06:45:54 06:50:53 76° 102° (ESE) 06:56:15 437.365/2234.400
CUTE-I 31 Jul 06:54:41 06:59:51 48° 99° (E) 07:04:58 437.470
DOVE 4 31 Jul 06:57:01 07:01:11 23° 93° (E) 07:05:21 437.250
NOAA 15 31 Jul 07:00:14 07:05:30 72° 102° (ESE) 07:10:46 137.62
LilacSat-2 31 Jul 07:04:54 07:08:46 67° 101° (E) 07:12:34 437.200
RS-15 31 Jul 07:20:44 07:32:15 74° 307° (NW) 07:44:28 29.354- 29.394
HO-68 31 Jul 07:20:51 07:24:10 13° 87° (E) 07:27:27 435.675
GOMX 1 31 Jul 07:25:30 07:30:42 86° 102° (ESE) 07:36:09 467.674
YUBILEINY 31 Jul 07:30:26 07:31:36 10° 71° (ENE) 07:32:45 435.215
STRAND 1 31 Jul 07:32:40 07:37:48 69° 258° (WSW) 07:42:57 437.568
Cosmos 2491 31 Jul 07:51:16 07:59:35 44° 73° (ENE) 08:07:51 435.465 / 435.565
NOAA 18 31 Jul 08:08:34 08:13:45 42° 292° (WNW) 08:18:54 137.9125
SO-50 31 Jul 08:11:24 08:16:03 43° 310° (NW) 08:20:40 436.795
Cubesat XI-IV 31 Jul 08:12:43 08:17:33 35° 293° (WNW) 08:22:20 437.490
CINEMA 3 31 Jul 08:13:09 08:17:49 37° 96° (E) 08:22:23 145.822/145.860
CANX-2 31 Jul 08:15:12 08:18:58 31° 96° (E) 08:22:41 2200.000
BRITE-PL 31 Jul 08:26:12 08:28:51 15° 297° (WNW) 08:31:34 437.365/2234.400
PRISM 31 Jul 08:26:23 08:30:22 57° 73° (ENE) 08:34:21 437.425
CUTE 1.7 + AOD 2 31 Jul 08:27:37 08:31:31 37° 97° (E) 08:35:25 437.475
DOVE 4 31 Jul 08:34:03 08:39:00 46° 289° (WNW) 08:44:03 437.250
CUTE-I 31 Jul 08:35:27 08:39:34 23° 297° (WNW) 08:43:41 437.470
NOAA 15 31 Jul 08:41:32 08:44:40 16° 300° (WNW) 08:47:49 137.62
CUBEBUG 2 31 Jul 08:50:30 08:54:24 26° 94° (E) 08:58:12 437.445
SEEDS 31 Jul 08:58:17 09:02:25 59° 100° (E) 09:06:31 437.485
COMPASS 1 31 Jul 09:01:39 09:05:37 43° 99° (E) 09:09:33 437.405
TIGRISAT 31 Jul 09:03:04 09:05:25 14° 61° (ENE) 09:07:48 435.000
GOMX 1 31 Jul 09:05:38 09:08:08 14° 299° (WNW) 09:10:40 467.674
HO-68 31 Jul 09:05:40 09:12:56 80° 106° (ESE) 09:20:06 435.675
YUBILEINY 31 Jul 09:17:49 09:26:24 62° 92° (E) 09:35:04 435.215
UNISAT 6 31 Jul 09:19:39 09:23:09 21° 65° (ENE) 09:26:40 437.425
AAUSAT CUBESAT 2 31 Jul 09:25:19 09:29:25 65° 101° (E) 09:33:30 437.432
RS-15 31 Jul 09:37:14 09:47:17 30° 336° (NNW) 09:57:44 29.354- 29.394
FUNcube-1 31 Jul 09:41:33 09:45:38 35° 97° (E) 09:49:37 145.935
ZACube-1 31 Jul 09:44:58 09:49:13 41° 98° (E) 09:53:20 437.345
Cosmos 2491 31 Jul 09:48:19 09:56:19 42° 273° (W) 10:04:19 435.465 / 435.565
CINEMA 3 31 Jul 09:50:35 09:54:45 27° 293° (WNW) 09:58:52 145.822/145.860
CANX-2 31 Jul 09:51:22 09:54:39 23° 293° (WNW) 09:57:56 2200.000
UWE-3 31 Jul 09:54:37 09:59:14 83° 104° (ESE) 10:03:40 435.000/436.395/437.385
ANTELSAT 31 Jul 09:56:44 10:01:13 48° 72° (ENE) 10:05:45 437.575/2403.000
CUTE 1.7 + AOD 2 31 Jul 10:04:06 10:07:06 19° 294° (WNW) 10:10:06 437.475
Cosmos 2504 31 Jul 10:04:11 10:12:23 44° 87° (E) 10:20:29 435.465 / 435.565
PRISM 31 Jul 10:04:40 10:06:01 11° 269° (W) 10:07:22 437.425
Oscar 11 31 Jul 10:17:28 10:21:48 84° 281° (WNW) 10:26:05 145.826/435.025
HUMSAT D 31 Jul 10:20:05 10:23:15 21° 93° (E) 10:26:21 437.325/437.525
M-CUBED/EXP-1 PRIME 31 Jul 10:22:58 10:26:50 25° 99° (E) 10:30:38 437.505
QB50P2 31 Jul 10:26:11 10:28:53 17° 64° (ENE) 10:31:35 145.880/145.840
CUBEBUG 2 31 Jul 10:26:52 10:31:01 32° 291° (WNW) 10:35:05 437.445
POLYITAN 1 31 Jul 10:28:44 10:31:30 17° 64° (ENE) 10:34:17 437.675
SEEDS 31 Jul 10:35:45 10:37:38 13° 297° (WNW) 10:39:29 437.485
TIGRISAT 31 Jul 10:36:52 10:41:30 70° 258° (WSW) 10:46:14 435.000
COMPASS 1 31 Jul 10:38:15 10:40:49 16° 295° (WNW) 10:43:24 437.405
DELFI C3 31 Jul 10:44:37 10:48:35 88° 111° (ESE) 10:52:31 145.870
AUBIESAT-1 31 Jul 10:44:47 10:49:01 33° 101° (ESE) 10:53:08 437.475
JAS-2 31 Jul 10:53:35 10:56:24 14° 60° (ENE) 10:59:08 435.910
HO-68 31 Jul 10:54:41 10:59:50 22° 304° (NW) 11:04:59 435.675
UNISAT 6 31 Jul 10:55:08 10:59:33 42° 262° (W) 11:04:02 437.425
AAUSAT CUBESAT 2 31 Jul 11:03:00 11:04:21 11° 298° (WNW) 11:05:42 437.432
BUGSAT 1 31 Jul 11:04:56 11:07:26 16° 64° (ENE) 11:09:57 437.445
NANOSAT C BR1 31 Jul 11:06:05 11:10:00 38° 71° (ENE) 11:13:58 145.865
DUCHIFAT 1 31 Jul 11:08:04 11:11:58 37° 71° (ENE) 11:15:55 145.980
YUBILEINY 31 Jul 11:16:17 11:23:45 30° 292° (WNW) 11:31:20 435.215
FUNcube-1 31 Jul 11:18:14 11:21:39 22° 294° (WNW) 11:25:00 145.935
ZACube-1 31 Jul 11:22:00 11:25:11 19° 295° (WNW) 11:28:17 437.345
QB50P1 31 Jul 11:30:54 11:35:09 77° 75° (ENE) 11:39:26 145.935-145.965
UWE-3 31 Jul 11:33:41 11:34:56 11° 300° (WNW) 11:36:11 435.000/436.395/437.385
ANTELSAT 31 Jul 11:35:00 11:38:09 18° 268° (W) 11:41:22 437.575/2403.000
POPSAT HIP 1 31 Jul 11:37:49 11:42:04 90° 169° (SSE) 11:46:23 437.405
HUMSAT D 31 Jul 11:55:13 11:58:55 32° 290° (WNW) 12:02:35 437.325/437.525
AIST 1 31 Jul 11:55:35 11:57:15 12° 84° (E) 11:58:55
RS-15 31 Jul 11:55:39 12:05:13 25° 11° (NNE) 12:14:54 29.354- 29.394
CUBEBUG 1 31 Jul 11:56:20 12:00:06 27° 96° (E) 12:03:51 437.445
M-CUBED/EXP-1 PRIME 31 Jul 11:57:01 12:01:23 38° 295° (WNW) 12:05:42 437.505
Cosmos 2504 31 Jul 11:57:22 12:05:43 44° 286° (WNW) 12:14:00 435.465 / 435.565
QB50P2 31 Jul 12:00:12 12:04:19 46° 261° (W) 12:08:27 145.880/145.840
POLYITAN 1 31 Jul 12:02:50 12:06:56 45° 261° (W) 12:11:05 437.675
AO-85 31 Jul 12:06:38 12:11:01 26° 112° (ESE) 12:15:17 145.980
VELOX 1 31 Jul 12:07:23 12:11:19 30° 96° (E) 12:15:14 145.980
ESTCUBE 1 31 Jul 12:10:19 12:14:46 58° 101° (E) 12:19:11 437.505/2401.250
